KE9LZ Weather Reports


time (UTC)temp
F
wind
direction
speed
knots
gust
knots
rain 1hr
in
rain 24hr
in
rain mn
in
humidity
%
barometer
mb
20260903070002 69 112 0.0 1.7 0.00 0.46 0.00 96 1016.4
20260903065003 70 65 0.9 1.7 0.00 0.46 0.00 96 1016.5
20260903064003 70 85 1.7 2.6 0.00 0.46 0.00 96 1016.7
20260903063002 69 114 1.7 1.7 0.00 0.46 0.00 97 1016.7
20260903062003 69 80 0.9 1.7 0.00 0.46 0.00 97 1016.8
20260903061002 69 152 0.9 1.7 0.00 0.46 0.00 97 1016.8
20260903060003 69 104 0.9 0.9 0.00 0.46 0.00 97 1016.6
20260903055003 69 116 0.0 0.9 0.00 0.46 0.00 97 1016.5
20260903053003 70 125 0.0 0.9 0.00 0.46 0.00 96 1016.6
20260903051004 70 85 0.9 1.7 0.00 0.46 0.00 95 1016.5
20260903050004 70 59 0.9 0.9 0.00 0.46 0.00 94 1016.6
20260903045003 71 68 0.9 0.9 0.00 0.46 0.46 94 1016.4
20260903044004 71 102 0.9 1.7 0.00 0.46 0.46 93 1016.4
20260903042003 71 105 0.9 2.6 0.00 0.46 0.46 93 1016.4
20260903041003 71 85 1.7 2.6 0.00 0.46 0.46 93 1016.3
20260903040002 72 93 0.9 2.6 0.00 0.46 0.46 92 1016.5
20260903035003 72 89 0.9 2.6 0.00 0.46 0.46 92 1016.6
20260903034003 72 85 0.9 1.7 0.00 0.46 0.46 93 1016.7
20260903033003 72 84 0.9 1.7 0.00 0.46 0.46 93 1016.7
20260903032003 73 88 1.7 1.7 0.00 0.46 0.46 92 1016.9
20260903031003 73 70 0.9 2.6 0.00 0.46 0.46 92 1016.8
20260903030003 73 127 0.9 1.7 0.00 0.46 0.46 92 1016.6
20260903025003 73 94 1.7 2.6 0.00 0.46 0.46 92 1016.6
20260903023004 74 84 1.7 1.7 0.00 0.46 0.46 91 1016.3
20260903022003 74 111 0.9 1.7 0.00 0.46 0.46 91 1016.6
20260903021003 75 101 1.7 4.3 0.00 0.46 0.46 90 1016.3
20260903020003 76 105 1.7 2.6 0.00 0.46 0.46 89 1016.3
20260903015003 76 111 1.7 1.7 0.00 0.46 0.46 88 1016.1
20260903014003 76 95 0.9 1.7 0.00 0.46 0.46 87 1016.1
20260903013003 77 91 0.9 1.7 0.00 0.46 0.46 86 1016.0
20260903012003 77 131 0.9 0.9 0.00 0.46 0.46 85 1015.9
20260903011003 78 137 0.9 1.7 0.00 0.46 0.46 84 1015.8
20260903010003 78 130 0.0 0.9 0.00 0.46 0.46 83 1015.7
20260903005003 79 3 0.0 0.9 0.00 0.46 0.46 81 1015.4
20260903004003 80 143 0.9 1.7 0.00 0.46 0.46 79 1015.2
20260903003003 80 127 0.9 0.9 0.00 0.46 0.46 79 1015.5
20260903002003 81 137 0.0 1.7 0.00 0.46 0.46 76 1015.5
20260903001003 81 118 0.9 2.6 0.00 0.46 0.46 75 1015.5
20260903000002 82 152 0.9 1.7 0.00 0.46 0.46 73 1015.6
20260902235002 84 149 0.9 1.7 0.00 0.46 0.46 70 1015.3
20260902234003 84 179 0.0 2.6 0.00 0.46 0.46 69 1015.5
20260902233003 84 293 0.9 5.2 0.00 0.46 0.46 68 1015.5
20260902232003 83 329 1.7 5.2 0.00 0.46 0.46 69 1015.4
20260902231003 84 295 2.6 4.3 0.00 0.46 0.46 69 1015.5
20260902223003 83 153 1.7 4.3 0.00 0.46 0.46 70 1015.4
20260902222003 84 244 1.7 4.3 0.00 0.46 0.46 69 1015.3
20260902221003 85 212 1.7 5.2 0.00 0.46 0.46 67 1015.6
20260902220003 84 235 2.6 4.3 0.00 0.46 0.46 67 1015.2
20260902215003 84 192 1.7 5.2 0.00 0.46 0.46 69 1015.2
20260902214004 84 219 1.7 5.2 0.00 0.46 0.46 69 1015.6
20260902213003 84 279 2.6 5.2 0.00 0.46 0.46 68 1015.5
20260902212003 84 281 1.7 4.3 0.00 0.46 0.46 67 1015.7
20260902211004 82 289 3.5 6.1 0.00 0.46 0.46 71 1015.7
20260902210003 82 359 2.6 5.2 0.00 0.46 0.46 72 1015.7
20260902205004 83 73 1.7 7.8 0.00 0.46 0.46 70 1016.1
20260902204003 83 21 0.9 7.0 0.00 0.46 0.46 69 1015.9
20260902203004 81 289 1.7 6.1 0.00 0.46 0.46 71 1016.1
20260902202003 83 323 2.6 5.2 0.00 0.46 0.46 69 1016.2
20260902201003 82 328 1.7 6.1 0.00 0.46 0.46 70 1016.3
20260902195003 81 282 2.6 5.2 0.00 0.46 0.46 70 1016.0
20260902194003 82 287 1.7 4.3 0.00 0.46 0.46 69 1015.9
20260902193003 82 322 1.7 4.3 0.00 0.46 0.46 68 1016.2
20260902192004 82 28 2.6 5.2 0.00 0.46 0.46 69 1016.2
20260902191003 80 291 1.7 5.2 0.00 0.46 0.46 71 1015.9
20260902190003 80 308 2.6 6.1 0.00 0.46 0.46 71 1016.0
20260902185003 81 339 2.6 5.2 0.00 0.46 0.46 71 1016.2
20260902183003 80 328 1.7 4.3 0.00 0.46 0.46 71 1016.5
20260902182004 77 316 1.7 7.8 0.00 0.46 0.46 76 1016.6
20260902181004 79 259 1.7 4.3 0.00 0.46 0.46 74 1016.8
20260902180006 77 335 1.7 5.2 0.00 0.46 0.46 76 1016.8
20260902174003 76 272 2.6 2.6 0.00 0.46 0.46 79 1016.8
20260902171004 74 77 0.9 5.2 0.00 0.46 0.46 82 1016.9
20260902170004 74 161 1.7 2.6 0.00 0.46 0.46 83 1016.8
20260902164003 73 179 1.7 2.6 0.00 0.46 0.46 85 1017.2
20260902162004 72 196 1.7 1.7 0.00 0.46 0.46 88 1017.3
20260902161004 71 233 0.9 1.7 0.00 0.46 0.46 90 1016.9
20260902160003 70 128 0.9 1.7 0.00 0.46 0.46 91 1017.1
20260902155003 70 49 0.9 1.7 0.00 0.46 0.46 92 1017.1
20260902153003 69 85 0.9 1.7 0.00 0.46 0.46 94 1017.1
20260902151003 68 82 0.0 2.6 0.00 0.46 0.46 97 1016.9
20260902150003 68 124 1.7 2.6 0.00 0.46 0.46 98 1016.8
20260902145003 67 44 2.6 4.3 0.00 0.46 0.46 98 1017.1
20260902144003 67 162 2.6 4.3 0.00 0.46 0.46 98 1016.6
20260902143003 67 33 1.7 2.6 0.00 0.46 0.46 99 1016.4
20260902142003 66 94 1.7 2.6 0.00 0.46 0.46 99 1017.1
20260902141003 66 159 0.9 5.2 0.01 0.46 0.46 99 1018.1
20260902140003 66 8 1.7 5.2 0.02 0.46 0.46 99 1018.3
20260902135004 66 305 1.7 4.3 0.02 0.46 0.46 99 1018.4
20260902134003 66 301 1.7 2.6 0.02 0.46 0.46 99 1018.3
20260902133003 65 146 1.7 2.6 0.02 0.46 0.46 99 1017.6
20260902132004 65 133 0.9 4.3 0.01 0.46 0.46 99 1017.8
20260902131003 65 150 0.9 2.6 0.01 0.46 0.46 99 1017.4
20260902130003 65 302 0.9 2.6 0.00 0.45 0.45 99 1018.0
20260902125003 65 294 1.7 2.6 0.00 0.45 0.45 99 1017.3
20260902124003 65 295 1.7 2.6 0.00 0.45 0.45 99 1016.7
20260902122002 65 113 1.7 2.6 0.00 0.45 0.45 99 1016.9
20260902121003 65 144 0.9 2.6 0.00 0.45 0.45 99 1017.1
20260902120003 65 181 0.9 2.6 0.00 0.45 0.45 99 1017.0
20260902115003 65 14 0.9 2.6 0.00 0.45 0.45 99 1017.2
20260902113004 65 107 1.7 2.6 0.02 0.45 0.45 99 1017.3
20260902110005 65 81 1.7 4.3 0.36 0.44 0.44 99 1017.9
20260902105003 65 174 1.7 4.3 0.36 0.44 0.44 99 1018.6
20260902104003 65 67 1.7 2.6 0.37 0.44 0.44 99 1019.2
20260902103003 65 113 1.7 6.1 0.43 0.43 0.43 98 1019.6
20260902102003 66 14 4.3 17.4 0.39 0.40 0.40 97 1019.0
20260902101004 69 289 12.2 26.1 0.12 0.13 0.13 93 1021.3
20260902095003 73 353 5.2 13.0 0.07 0.08 0.08 98 1016.5
20260902094003 73 320 1.7 5.2 0.07 0.08 0.08 97 1015.4
20260902093003 73 84 0.9 2.6 0.00 0.01 0.01 96 1015.1
20260902092003 74 82 1.7 2.6 0.00 0.01 0.01 96 1015.3
20260902091004 74 76 1.7 2.6 0.01 0.01 0.01 95 1015.9
20260902090004 74 90 1.7 4.3 0.01 0.01 0.01 94 1016.6
20260902085004 74 183 0.9 1.7 0.01 0.01 0.01 94 1016.8
20260902084003 74 224 0.9 1.7 0.01 0.01 0.01 93 1016.6
20260902083003 74 325 1.7 4.3 0.01 0.01 0.01 92 1016.4
20260902082003 75 280 0.9 2.6 0.00 0.00 0.00 89 1016.1
20260902080003 76 117 0.9 2.6 0.00 0.00 0.00 85 1016.1
20260902075003 75 186 0.9 1.7 0.00 0.00 0.00 86 1015.9
20260902074004 75 113 1.7 4.3 0.00 0.00 0.00 86 1016.2
20260902073003 76 160 1.7 4.3 0.00 0.00 0.00 86 1016.3
20260902072003 75 128 0.9 1.7 0.00 0.00 0.00 85 1015.6
20260902071004 75 96 0.0 0.9 0.00 0.00 0.00 85 1015.9